GFSSW_sfc_temp_021.txt.gz
Temp
62 62 63 63 63 64 64 64 64 64 64 64 65 64 64 65 65 66 67 74 73 71 69 72 69 69 67 64 65 62 49 46 53 54 57 62 60 60 61 59 58 64 59 59 60
61 61 62 62 62 63 63 64 63 63 63 64 64 64 64 64 66 67 75 72 72 71 73 69 66 67 60 61 61 55 46 53 59 58 57 60 60 61 57 57 57 58 56 58 60
60 60 60 61 62 62 63 63 63 63 63 63 63 63 63 62 63 68 71 71 71 71 72 72 70 68 59 60 59 57 52 59 62 61 62 60 57 62 59 55 59 60 58 56 55
60 60 60 60 61 62 62 62 62 62 63 63 63 63 62 64 57 69 70 71 71 71 70 69 66 61 57 57 63 55 62 63 63 63 60 57 61 59 59 62 65 64 62 57 56
61 60 60 60 60 61 61 62 62 62 62 62 63 62 62 59 64 69 68 69 70 70 69 67 63 61 56 59 60 57 58 63 63 62 61 60 59 57 58 61 64 64 60 57 57
61 61 60 60 60 61 61 61 62 62 61 62 63 62 60 56 70 70 69 67 70 68 67 67 65 65 60 59 56 57 58 59 60 62 60 58 54 56 59 61 63 62 60 56 58
61 60 60 60 60 60 61 61 61 61 61 62 63 64 61 64 71 69 70 67 67 68 64 67 65 62 59 57 59 58 55 56 58 59 57 57 53 53 64 60 60 60 60 58 57
60 60 59 59 60 60 61 61 61 61 61 62 64 60 59 68 66 70 69 66 67 67 66 65 66 62 58 60 57 51 48 45 55 56 56 59 50 60 61 57 58 59 57 57 59
60 59 59 60 60 60 60 61 60 61 63 64 58 57 59 68 66 70 69 66 66 66 64 71 64 58 55 50 46 46 42 44 51 58 54 52 49 57 60 56 57 55 58 59 58
60 59 59 60 60 60 60 61 61 62 63 66 68 55 62 62 64 67 67 67 62 61 60 58 55 50 47 45 40 41 41 46 47 52 49 47 50 58 57 55 57 56 54 56 61
60 60 60 60 60 61 58 54 59 57 57 59 59 59 62 62 65 62 64 63 62 57 50 53 46 45 53 51 53 48 46 44 55 58 52 52 54 57 59 55 53 60 61 59 63
60 60 60 60 60 60 55 55 49 51 47 59 60 62 66 64 59 60 66 58 55 49 51 48 44 54 55 53 51 49 47 45 53 56 50 50 51 58 54 58 60 60 58 61 62
60 59 59 59 59 57 53 51 57 54 43 54 59 61 62 63 58 58 62 56 51 48 49 50 51 56 54 52 49 51 47 49 49 52 48 46 44 48 53 57 59 62 63 64 63
59 59 59 59 56 55 52 56 56 53 38 48 54 57 58 59 54 58 62 59 51 50 48 48 56 55 49 49 52 47 52 50 47 41 41 44 40 46 51 52 54 59 59 61 57
59 59 59 60 52 51 56 57 54 51 27 51 52 60 56 55 52 52 55 53 48 48 49 49 48 47 48 53 52 52 51 48 43 39 36 39 36 42 51 48 53 58 60 62 59
58 58 58 57 53 56 57 55 52 41 29 48 51 48 48 49 49 51 51 54 51 47 48 48 49 50 50 47 50 48 44 42 39 36 32 38 40 42 43 51 52 59 62 62 61
58 57 57 62 56 58 58 55 42 35 50 47 47 48 46 45 46 46 44 42 42 37 37 44 48 51 50 45 44 44 40 30 27 24 32 43 36 49 51 52 55 58 60 61 55
57 57 55 59 59 58 55 44 32 43 47 52 50 47 46 48 47 45 42 38 42 41 38 38 41 45 48 51 44 39 45 30 23 28 39 34 31 42 54 59 57 59 61 56 52
56 55 53 56 56 55 46 34 42 46 50 50 49 44 43 47 48 43 39 39 45 46 41 39 39 43 44 45 50 40 36 46 34 18 23 41 43 51 49 52 52 54 51 51 50
53 53 52 55 56 50 40 41 45 50 51 49 42 47 40 42 45 44 41 45 46 49 56 48 40 47 42 42 42 42 44 33 32 23 20 38 39 45 50 55 57 51 50 50 49
51 48 52 55 55 44 35 38 43 51 52 48 47 43 43 42 46 45 44 47 51 51 51 47 43 45 40 38 40 37 37 39 39 34 34 32 40 47 48 49 51 51 51 49 49
49 42 52 55 42 42 40 44 48 47 50 49 48 48 46 47 45 44 44 48 54 52 43 43 39 32 39 46 45 46 45 46 37 35 33 36 39 60 56 50 52 52 52 51 51
44 45 51 51 39 40 42 43 46 46 47 47 45 48 49 43 39 43 44 53 54 51 44 42 32 28 30 42 40 40 43 45 44 37 34 29 34 58 57 52 49 51 51 51 52
41 37 43 44 46 43 42 42 41 47 45 47 47 47 44 41 44 40 41 45 47 47 47 47 34 33 30 39 44 39 40 40 42 35 36 35 38 46 51 54 57 59 61 64 57
38 35 40 34 39 41 42 41 39 37 45 46 43 43 42 38 40 39 42 44 46 45 44 42 32 34 36 40 42 40 39 42 38 40 34 36 37 43 49 51 54 58 60 55 55
34 32 38 33 38 38 37 38 38 39 40 39 38 36 35 34 37 35 40 42 41 38 41 40 34 36 32 35 35 33 38 39 38 39 39 40 40 51 53 54 53 54 56 55 56
38 40 37 33 31 30 31 36 37 38 38 38 36 33 32 36 40 38 37 36 36 36 37 38 33 32 29 35 33 28 34 36 38 41 42 35 42 50 50 51 51 52 55 54 56

GFSSW_sfc_temp_024.txt.gz
Temp
61 62 62 63 63 63 64 64 64 63 63 64 64 64 64 64 64 64 64 73 71 70 70 68 65 65 64 61 62 58 48 43 49 51 55 57 56 58 58 56 56 62 57 57 56
61 61 61 61 62 62 63 63 63 63 63 63 63 63 63 64 63 63 72 72 72 70 70 67 64 64 58 58 59 54 44 50 56 55 55 58 58 57 54 55 55 57 55 55 57
61 61 61 61 61 62 62 62 62 62 63 63 63 63 63 61 61 66 72 72 71 70 71 69 67 65 56 57 56 54 50 55 60 60 60 58 55 59 56 54 58 59 57 53 51
61 61 61 61 61 61 62 62 62 62 62 62 62 62 62 61 56 68 70 71 70 69 70 67 64 58 55 55 60 51 58 59 61 61 59 57 57 57 57 66 63 62 59 53 53
61 61 60 60 60 61 62 62 62 62 62 62 62 62 60 57 62 68 68 69 67 67 67 65 61 59 54 55 56 54 56 60 61 60 58 58 58 57 56 60 62 61 57 54 55
61 60 60 60 60 61 61 62 62 62 62 62 62 62 57 54 68 68 67 65 67 65 64 64 62 62 57 57 55 55 56 58 58 59 57 57 54 56 65 57 59 60 57 54 56
60 60 60 60 60 61 61 61 62 61 61 62 62 62 57 63 68 66 66 64 65 65 62 62 62 59 56 55 58 57 54 55 58 57 56 55 52 51 65 56 58 58 57 56 56
60 60 59 60 60 60 61 61 61 61 61 62 63 57 57 66 63 66 66 64 65 66 64 63 63 60 55 58 56 50 46 44 54 53 54 57 50 60 60 57 57 56 57 55 58
60 59 60 60 60 60 60 61 61 61 62 63 56 55 57 66 63 67 66 63 64 64 64 69 62 55 54 48 44 41 40 41 50 55 52 51 49 59 57 54 55 57 54 58 58
60 59 60 60 60 60 60 61 60 61 62 64 65 53 60 60 63 64 64 65 60 60 58 56 51 47 45 44 38 40 38 42 45 51 46 46 48 57 57 54 53 54 54 53 57
60 60 60 60 60 61 57 54 57 55 55 57 56 57 60 61 63 62 64 63 60 55 48 49 44 43 51 49 54 43 42 42 48 53 47 47 51 55 60 56 52 54 58 59 55
60 60 60 60 60 60 54 51 48 49 47 56 57 58 62 61 57 57 64 56 52 47 48 44 42 52 52 51 47 46 45 46 52 55 47 49 50 56 56 60 61 59 60 60 63
60 59 59 59 59 57 51 50 55 53 42 51 55 56 58 61 56 57 60 54 49 45 46 48 50 53 51 48 46 45 43 46 45 47 46 44 46 47 51 58 62 62 62 63 61
59 59 59 59 55 52 51 54 55 52 37 47 52 55 56 58 52 57 57 55 47 47 45 44 53 52 45 45 49 45 50 49 46 38 39 42 39 46 49 51 53 56 58 59 61
58 59 59 60 52 51 55 55 53 50 29 50 51 58 55 53 49 51 53 52 46 46 46 46 45 44 45 50 48 48 48 46 41 36 33 37 34 42 50 49 52 58 57 59 62
58 58 58 57 53 56 56 52 51 42 33 46 50 47 47 47 48 49 50 53 49 45 45 46 48 49 48 48 48 47 43 41 35 35 34 39 39 40 41 49 51 57 60 62 63
57 57 56 59 53 57 57 54 42 35 47 45 46 46 45 45 45 45 44 42 41 37 37 41 44 47 49 43 43 43 39 29 26 24 31 41 35 49 48 51 53 56 57 61 63
56 57 55 58 55 56 54 46 35 44 43 49 47 44 44 46 46 43 39 38 41 39 37 36 39 44 46 48 43 40 42 29 21 28 38 32 31 44 52 56 56 56 59 60 54
56 55 54 55 55 54 47 38 39 47 50 47 47 40 39 44 45 41 37 37 43 44 40 35 39 42 44 44 49 38 35 47 30 15 20 36 42 51 47 50 52 53 55 49 51
50 52 52 55 56 51 42 41 45 50 51 50 42 44 37 42 44 43 43 42 43 45 51 46 39 47 41 41 41 42 43 32 30 21 18 32 34 42 49 53 53 52 51 51 50
49 45 51 56 54 45 37 40 44 52 52 48 45 44 44 43 46 45 46 44 47 49 48 46 40 42 39 38 43 35 35 36 37 34 32 31 38 56 51 49 47 51 51 50 50
47 40 52 55 42 42 40 44 48 48 51 49 47 46 44 45 43 44 44 47 49 50 44 45 39 33 38 46 39 41 42 43 36 34 37 38 38 56 57 56 57 57 53 51 49
43 44 51 51 38 39 42 42 46 45 46 46 45 46 48 44 38 44 45 51 53 49 44 42 35 30 30 36 40 38 43 43 45 42 36 32 36 57 58 56 55 49 51 54 53
39 35 43 45 45 41 41 42 41 45 44 47 46 46 42 40 44 41 43 48 47 48 49 47 40 34 31 38 42 35 39 43 42 35 36 36 40 48 53 54 56 56 57 57 56
37 34 39 34 38 40 42 40 38 38 45 44 42 42 38 35 35 35 36 34 40 44 43 43 33 36 36 38 41 41 41 42 39 41 35 40 40 46 50 52 56 56 56 52 53
33 32 35 34 36 36 38 37 38 39 40 39 37 32 34 30 32 29 33 32 32 35 35 34 30 33 31 35 34 32 37 38 38 40 40 41 40 51 54 55 53 55 56 54 54
35 38 35 32 30 28 28 33 34 35 37 39 34 31 30 32 35 36 37 36 35 32 30 31 30 28 24 33 32 28 34 36 38 41 40 34 42 50 48 50 51 51 49 42 41

GFSSW_sfc_temp_030.txt.gz
Temp
62 62 62 63 62 63 63 63 63 63 63 63 63 63 63 63 64 59 60 70 68 70 69 65 63 61 60 57 57 53 46 40 45 45 52 52 51 54 54 52 52 59 55 54 50
62 62 62 62 62 62 62 63 63 62 63 63 63 63 63 62 58 59 70 71 71 70 66 64 60 60 56 54 54 51 43 47 51 50 52 54 53 54 51 52 53 56 56 51 50
62 62 62 62 62 62 62 62 62 62 62 62 62 62 62 59 59 65 72 72 70 70 66 63 62 60 52 52 52 49 48 50 54 55 55 54 53 56 52 53 56 59 60 52 49
61 61 61 62 62 62 63 63 62 62 62 62 62 62 61 56 54 64 69 71 69 67 66 62 59 54 50 51 54 47 53 54 56 57 54 53 55 53 55 64 62 61 59 52 50
61 60 61 61 61 62 62 63 63 62 62 62 62 62 58 55 62 64 67 67 65 65 63 60 57 54 50 50 51 48 51 55 55 54 54 54 55 54 53 61 59 57 56 55 52
60 60 60 60 61 62 62 62 62 62 62 62 62 61 55 52 66 64 62 63 63 62 60 60 59 58 52 52 52 50 51 53 54 54 54 54 57 52 58 55 59 56 55 54 53
60 60 60 60 61 61 61 62 62 61 61 61 62 58 53 60 63 62 64 61 62 62 58 59 61 57 54 49 53 51 49 50 50 52 51 51 50 48 61 53 57 56 54 55 53
60 60 60 60 60 61 61 61 61 61 61 61 61 53 54 62 59 61 61 60 59 61 62 61 60 57 53 52 52 45 42 41 49 48 49 52 45 60 58 53 55 55 54 52 54
59 59 60 60 60 60 60 61 60 62 61 61 54 53 55 63 59 61 61 60 61 59 58 65 59 53 50 44 42 38 37 39 44 51 50 48 44 55 55 50 54 55 55 57 57
59 59 60 60 60 60 60 61 60 60 60 60 62 51 59 58 58 59 58 61 57 57 56 53 49 45 41 42 36 38 34 38 39 48 44 44 43 51 57 51 57 60 59 57 58
60 60 60 60 60 61 57 54 54 53 52 55 53 53 57 57 59 57 59 59 57 53 46 46 42 40 49 46 46 39 38 37 44 52 42 47 49 53 56 56 57 58 58 58 61
60 60 60 60 60 60 53 50 47 48 45 53 53 54 57 57 53 54 60 54 50 45 44 40 37 47 46 45 44 42 40 41 47 51 42 44 46 52 55 56 59 60 62 62 61
60 59 59 59 59 55 50 48 52 49 41 49 52 51 54 57 52 54 57 50 47 42 42 44 46 48 47 43 43 39 37 43 41 43 42 39 39 42 48 52 57 59 61 61 60
59 59 59 59 55 50 49 52 52 50 38 43 48 51 52 53 48 52 53 52 44 44 42 41 46 46 40 42 44 41 46 45 42 36 32 40 33 40 53 54 49 54 55 54 54
58 58 59 59 52 53 55 54 51 49 32 47 47 55 51 49 46 48 50 48 42 42 43 43 41 40 40 44 45 42 44 41 36 33 31 31 29 37 43 43 49 52 53 54 56
56 57 58 56 55 55 56 55 55 43 33 43 47 44 45 45 45 46 46 50 46 42 41 42 43 45 45 44 45 44 39 36 31 32 27 37 35 38 40 46 46 50 55 55 54
55 56 56 58 54 54 54 52 40 33 49 42 42 43 42 42 42 42 41 39 39 34 33 37 40 42 46 39 39 40 36 28 25 22 31 34 32 45 46 51 51 56 57 52 51
55 56 55 57 54 54 53 46 32 41 43 47 46 45 43 45 45 43 39 36 40 37 34 35 37 41 43 45 42 36 38 27 19 22 35 32 34 44 49 52 52 49 48 51 51
55 52 54 55 55 54 48 38 38 43 49 47 47 42 39 43 46 42 39 37 42 44 41 33 34 40 42 41 45 35 34 39 31 19 20 37 43 52 50 48 46 48 47 50 49
45 47 50 55 55 51 43 40 42 49 49 49 41 45 39 41 42 39 40 40 41 44 48 42 34 41 38 39 38 40 40 31 27 23 18 32 32 40 47 48 49 47 47 48 49
45 42 48 54 55 46 37 40 45 51 51 46 43 42 42 41 42 43 42 44 43 43 45 44 39 37 37 35 38 34 35 34 36 33 29 26 33 51 47 45 44 49 52 49 50
43 35 50 55 41 42 38 42 46 47 50 46 45 43 42 43 41 40 40 44 47 46 40 44 36 30 35 44 42 43 43 43 34 28 32 34 33 54 53 51 49 51 54 53 46
39 38 51 50 36 37 42 41 44 42 43 44 42 44 47 42 37 42 42 46 44 45 40 40 34 29 33 33 34 32 37 39 38 38 32 28 33 48 50 50 52 44 34 39 39
37 30 36 44 44 38 38 40 40 46 44 44 43 45 41 39 42 37 37 42 40 41 44 41 34 31 27 31 33 30 32 34 32 25 27 28 32 37 40 36 31 34 35 35 35
34 31 35 33 34 37 39 39 36 34 41 44 40 39 37 33 35 34 34 33 38 39 37 35 26 30 30 32 32 30 28 30 29 32 27 32 34 34 28 29 32 33 33 33 33
29 31 35 29 32 30 33 34 34 36 40 35 37 34 34 32 31 29 27 29 28 32 31 33 22 26 22 29 29 26 29 31 32 33 33 33 32 28 31 32 31 31 31 32 34
32 35 35 30 28 27 27 30 29 32 33 34 31 29 28 31 31 32 32 32 31 28 26 25 20 11 17 27 23 16 24 29 29 28 24 22 23 26 26 29 30 31 31 31 31

GFSSW_sfc_temp_033.txt.gz
Temp
62 63 63 63 63 63 63 63 63 63 63 63 63 63 63 63 63 59 60 69 68 69 68 65 65 63 63 60 59 57 49 44 49 48 55 58 58 60 61 62 60 62 63 64 55
62 62 63 63 63 63 63 63 63 63 63 63 63 63 63 62 57 59 69 72 70 70 65 64 61 61 58 57 57 54 46 50 54 53 55 58 59 61 60 60 60 61 62 57 53
62 62 62 62 62 63 63 63 63 62 62 62 62 62 62 59 59 65 71 71 70 69 66 63 62 61 56 55 55 52 50 52 56 56 57 56 55 60 58 56 60 61 65 58 54
61 61 62 62 62 63 63 63 63 62 62 62 62 62 61 56 54 64 69 70 69 67 66 62 60 56 53 52 55 50 53 54 56 57 55 55 57 56 58 66 66 63 66 59 55
61 60 61 61 61 62 63 63 63 62 62 62 62 62 58 54 62 63 67 67 65 65 64 60 57 55 52 51 52 49 52 55 55 55 54 54 54 55 54 62 64 60 59 60 58
60 60 60 60 61 62 62 62 63 62 62 62 62 61 55 51 64 63 61 62 63 63 60 60 59 58 54 53 52 52 52 53 54 55 54 54 58 55 58 60 59 58 59 58 58
60 60 60 60 61 61 62 62 62 61 61 62 62 58 52 59 62 61 63 61 61 62 58 59 60 58 55 51 53 51 50 51 51 52 52 51 51 48 61 56 59 58 58 57 57
60 60 60 60 60 61 61 61 61 61 62 61 61 53 55 61 58 60 60 58 59 60 60 60 60 57 54 54 53 47 45 43 51 49 50 54 47 59 58 56 58 59 58 58 60
60 59 60 60 60 60 61 61 60 62 62 61 52 53 55 61 58 60 59 59 59 59 59 64 60 52 51 46 43 41 39 39 45 51 49 49 46 55 55 54 57 59 61 62 64
59 59 60 60 60 60 61 61 60 60 59 59 61 50 57 57 58 59 58 60 56 56 55 54 48 45 42 43 38 39 36 38 40 51 46 45 46 54 56 53 56 59 62 62 63
60 60 60 60 60 61 57 54 54 52 51 54 53 53 55 56 58 55 58 58 56 52 46 47 42 40 48 46 45 41 40 39 43 51 45 50 49 52 56 55 57 60 60 60 59
60 60 60 60 60 60 54 51 47 49 44 53 52 53 55 56 52 53 58 54 50 45 44 41 37 46 46 45 43 42 40 40 45 49 43 43 46 53 56 57 59 59 60 58 58
59 59 59 59 59 56 50 48 51 50 41 48 50 49 52 56 50 52 57 49 46 42 42 43 46 47 46 42 43 39 38 42 40 42 43 40 41 43 50 51 54 58 58 58 57
59 59 59 60 56 50 49 51 53 49 38 43 46 50 51 51 46 51 52 50 43 44 41 40 45 45 39 41 43 39 44 44 41 37 34 41 33 45 56 55 56 53 53 53 53
57 58 59 60 55 54 52 54 53 50 31 46 46 54 50 47 46 47 49 48 41 41 42 42 40 39 39 42 44 41 42 41 38 35 33 33 32 39 44 50 51 55 56 55 54
56 57 58 56 55 54 56 54 53 42 34 43 45 44 43 44 44 45 45 49 45 42 39 41 42 43 44 43 44 43 39 38 33 33 26 36 36 37 42 47 50 53 56 53 54
55 56 56 58 53 54 54 53 41 35 48 43 42 46 42 42 42 43 40 38 40 35 34 39 40 42 45 40 40 41 37 29 27 24 31 35 32 43 48 54 50 52 53 52 52
55 56 55 57 55 55 53 46 33 41 43 47 46 44 42 46 43 43 39 37 41 41 36 32 34 41 44 46 43 39 40 32 23 24 35 32 31 41 50 51 50 50 50 50 54
54 52 51 54 55 54 49 38 39 40 46 46 46 40 38 42 44 42 41 39 44 45 39 34 31 39 42 43 47 38 36 42 33 18 23 38 44 49 45 49 50 48 48 49 48
45 45 47 53 55 52 43 39 43 49 49 48 40 43 37 41 41 39 38 38 40 43 47 40 32 40 40 40 40 41 43 33 31 22 24 35 37 40 45 47 46 44 38 38 39
44 40 48 55 54 46 35 35 42 49 50 45 42 41 40 40 42 41 41 41 42 41 45 42 36 35 37 37 38 40 36 36 35 32 27 25 33 45 43 37 34 36 39 37 37
42 34 49 54 41 40 38 40 45 44 48 46 44 43 42 42 40 39 40 44 47 45 40 41 36 32 37 41 44 43 42 42 33 30 32 33 32 50 41 39 37 35 35 35 36
39 36 49 50 34 36 41 39 42 39 41 42 42 43 43 40 35 40 41 44 44 43 41 41 34 28 29 33 36 33 34 34 32 31 28 26 31 44 46 45 34 32 33 34 36
38 29 35 44 41 38 36 36 37 42 42 44 42 42 38 37 40 37 37 40 40 41 44 41 34 31 27 33 32 29 29 31 30 23 26 26 30 37 41 31 32 32 33 34 36
31 29 33 26 33 36 40 35 32 33 39 40 38 38 34 32 32 33 34 33 35 37 35 34 28 29 33 31 30 28 28 29 28 30 24 29 31 37 29 29 31 34 36 33 34
29 30 34 29 34 34 33 30 31 33 36 33 34 31 34 32 32 30 28 28 27 30 28 30 23 24 18 29 30 26 27 28 28 29 28 30 29 28 30 32 31 32 32 31 31
30 33 34 28 28 26 27 29 29 31 30 32 31 27 27 31 31 32 32 32 31 28 25 26 22 14 17 27 20 13 23 30 29 23 23 20 22 24 25 29 29 30 29 30 31